GW4575 Weather Reports


time (UTC)temp
C
wind
direction
speed
KPH
gust
KPH
rain 1hr
cm
rain 24hr
cm
rain mn
cm
humidity
%
barometer
mb
20260906191553 26 116 3.2 16.1 0.00 0.00 0.00 67 1023.6
20260906191053 25 218 1.6 6.4 0.00 0.00 0.00 66 1023.6
20260906190552 25 36 6.4 11.3 0.00 0.00 0.00 65 1023.6
20260906190047 25 165 6.4 9.7 0.00 0.00 0.00 66 1024.0
20260906185546 25 174 4.8 9.7 0.00 0.00 0.00 67 1024.0
20260906185045 25 138 3.2 9.7 0.00 0.00 0.00 67 1024.1
20260906184540 25 198 1.6 9.7 0.00 0.00 0.00 67 1023.9
20260906184036 25 164 3.2 4.8 0.00 0.00 0.00 68 1024.2
20260906183532 25 150 8.0 11.3 0.00 0.00 0.00 67 1024.1
20260906183027 25 204 1.6 6.4 0.00 0.00 0.00 68 1024.3
20260906182522 25 184 1.6 4.8 0.00 0.00 0.00 68 1024.2
20260906182019 25 175 4.8 6.4 0.00 0.00 0.00 68 1024.2
20260906181514 25 170 3.2 6.4 0.00 0.00 0.00 68 1024.2
20260906181010 25 184 1.6 6.4 0.00 0.00 0.00 70 1024.2
20260906180510 25 137 3.2 3.2 0.00 0.00 0.00 70 1024.3
20260906180003 25 131 3.2 6.4 0.00 0.00 0.00 70 1024.3
20260906175457 25 189 3.2 6.4 0.00 0.00 0.00 71 1024.2
20260906174956 25 127 3.2 6.4 0.00 0.00 0.00 72 1024.4
20260906174455 24 175 3.2 9.7 0.00 0.00 0.00 72 1024.2
20260906173950 24 179 3.2 4.8 0.00 0.00 0.00 71 1024.6
20260906173445 25 182 3.2 4.8 0.00 0.00 0.00 71 1024.2
20260906172945 23 148 1.6 9.7 0.00 0.00 0.00 74 1024.3
20260906172441 24 203 3.2 11.3 0.00 0.00 0.00 73 1024.4
20260906171936 23 113 8.0 11.3 0.00 0.00 0.00 74 1024.4
20260906171430 23 144 3.2 9.7 0.00 0.00 0.00 76 1024.3
20260906170927 23 121 3.2 6.4 0.00 0.00 0.00 75 1024.3
20260906170423 23 155 3.2 4.8 0.00 0.00 0.00 74 1024.3
20260906165919 22 166 1.6 4.8 0.00 0.00 0.00 75 1024.4
20260906165418 22 134 3.2 6.4 0.00 0.00 0.00 75 1024.3
20260906164914 21 123 3.2 9.7 0.00 0.00 0.00 78 1024.5
20260906164412 22 179 6.4 16.1 0.00 0.00 0.00 76 1024.7
20260906163909 22 148 8.0 12.9 0.00 0.00 0.00 75 1024.6
20260906163404 22 205 3.2 6.4 0.00 0.00 0.00 75 1024.7
20260906162902 22 168 3.2 12.9 0.00 0.00 0.00 77 1024.6
20260906162401 21 171 6.4 11.3 0.00 0.00 0.00 77 1024.5
20260906161856 22 149 6.4 6.4 0.00 0.00 0.00 75 1024.4
20260906161350 21 76 3.2 6.4 0.00 0.00 0.00 76 1024.6
20260906160849 22 158 3.2 6.4 0.00 0.00 0.00 73 1024.5
20260906160343 22 220 3.2 4.8 0.00 0.00 0.00 75 1024.6
20260906155841 21 183 3.2 9.7 0.00 0.00 0.00 76 1024.6
20260906155335 21 112 1.6 9.7 0.00 0.00 0.00 78 1024.4
20260906154832 21 135 4.8 11.3 0.00 0.00 0.00 78 1024.4
20260906154326 21 183 3.2 6.4 0.00 0.00 0.00 79 1024.4
20260906153824 20 112 3.2 6.4 0.00 0.00 0.00 81 1024.4
20260906153318 21 186 6.4 11.3 0.00 0.00 0.00 80 1024.5
20260906152813 21 149 4.8 6.4 0.00 0.00 0.00 79 1024.4
20260906152308 21 96 3.2 3.2 0.00 0.00 0.00 79 1024.4
20260906151807 20 141 1.6 4.8 0.00 0.00 0.00 80 1024.4
20260906151303 20 133 4.8 6.4 0.00 0.00 0.00 81 1024.6
20260906150758 20 211 4.8 4.8 0.00 0.00 0.00 78 1024.7
20260906150254 20 113 3.2 12.9 0.00 0.00 0.00 80 1024.7
20260906145753 20 144 3.2 6.4 0.00 0.00 0.00 81 1024.8
20260906145251 20 100 6.4 9.7 0.00 0.00 0.00 80 1024.6
20260906144747 19 174 3.2 9.7 0.00 0.00 0.00 82 1024.6
20260906144242 19 117 4.8 6.4 0.00 0.00 0.00 81 1024.4
20260906143741 19 126 4.8 9.7 0.00 0.00 0.00 82 1024.5
20260906143239 19 86 4.8 4.8 0.00 0.00 0.00 82 1024.5
20260906142738 19 147 3.2 6.4 0.00 0.00 0.00 83 1024.4
20260906142234 18 256 3.2 4.8 0.00 0.00 0.00 85 1024.6
20260906141732 18 152 3.2 6.4 0.00 0.00 0.00 87 1024.6
20260906141228 18 162 3.2 6.4 0.00 0.00 0.00 86 1024.5
20260906140727 18 151 3.2 4.8 0.00 0.00 0.00 86 1024.7
20260906140222 18 105 3.2 4.8 0.00 0.00 0.00 88 1024.7
20260906135719 17 177 6.4 9.7 0.00 0.00 0.00 89 1024.7
20260906135215 18 154 4.8 12.9 0.00 0.00 0.00 89 1024.6
20260906134710 17 103 3.2 6.4 0.00 0.00 0.00 88 1024.7
20260906134205 17 167 6.4 6.4 0.00 0.00 0.00 88 1024.7
20260906133700 17 164 3.2 4.8 0.00 0.00 0.00 88 1024.6
20260906133155 17 128 4.8 12.9 0.00 0.00 0.00 89 1024.6
20260906132645 17 154 1.6 9.7 0.00 0.00 0.00 90 1024.6
20260906132141 17 182 4.8 9.7 0.00 0.00 0.00 91 1024.7
20260906131636 17 122 1.6 6.4 0.00 0.00 0.00 93 1024.8
20260906131131 16 150 4.8 4.8 0.00 0.00 0.00 93 1024.5
20260906130626 16 158 1.6 4.8 0.00 0.00 0.00 94 1024.5
20260906130121 16 198 1.6 4.8 0.00 0.00 0.00 94 1024.5
20260906125619 16 144 3.2 4.8 0.00 0.00 0.00 93 1024.3
20260906125117 16 115 1.6 6.4 0.00 0.00 0.00 93 1024.4
20260906124613 16 162 3.2 6.4 0.00 0.00 0.00 93 1024.3
20260906124108 15 144 4.8 6.4 0.00 0.00 0.00 98 1024.5
20260906123608 15 127 1.6 9.7 0.00 0.00 0.00 99 1024.3
20260906123103 15 147 3.2 4.8 0.00 0.00 0.00 99 1024.5
20260906122601 15 148 0.0 1.6 0.00 0.00 0.00 99 1024.3
20260906122058 15 197 0.0 3.2 0.00 0.00 0.00 99 1024.2
20260906121554 15 166 4.8 9.7 0.00 0.00 0.00 99 1024.2
20260906121050 15 139 3.2 4.8 0.00 0.00 0.00 99 1024.3
20260906120545 15 156 3.2 6.4 0.00 0.00 0.00 99 1024.3
20260906120043 15 136 4.8 6.4 0.00 0.00 0.00 99 1024.0
20260906115542 15 203 4.8 6.4 0.00 0.00 0.00 99 1023.9
20260906115038 15 161 1.6 4.8 0.00 0.00 0.00 99 1023.9
20260906114532 15 171 3.2 3.2 0.00 0.00 0.00 99 1023.9
20260906114028 15 202 0.0 3.2 0.00 0.00 0.00 99 1023.9
20260906113527 15 144 4.8 6.4 0.00 0.00 0.00 99 1023.8
20260906113022 15 52 1.6 6.4 0.00 0.00 0.00 99 1023.9
20260906112517 15 180 1.6 6.4 0.00 0.00 0.00 99 1023.9
20260906112013 15 28 1.6 6.4 0.00 0.00 0.00 99 1023.8
20260906111507 15 186 6.4 9.7 0.00 0.00 0.00 99 1023.9
20260906111002 15 149 4.8 6.4 0.00 0.00 0.00 99 1024.0
20260906110456 15 184 3.2 11.3 0.00 0.00 0.00 99 1024.0
20260906105955 15 170 3.2 9.7 0.00 0.00 0.00 99 1023.9
20260906105452 15 43 3.2 9.7 0.00 0.00 0.00 99 1023.7
20260906104948 15 213 1.6 3.2 0.00 0.00 0.00 99 1023.8
20260906104446 15 171 1.6 6.4 0.00 0.00 0.00 99 1023.6
20260906103945 15 135 3.2 6.4 0.00 0.00 0.00 99 1023.8
20260906103444 15 219 1.6 12.9 0.00 0.00 0.00 98 1023.5
20260906102939 15 106 1.6 4.8 0.00 0.00 0.00 97 1023.6
20260906102438 15 133 3.2 6.4 0.00 0.00 0.00 96 1023.7
20260906101933 15 223 1.6 6.4 0.00 0.00 0.00 98 1023.6
20260906101429 15 191 3.2 6.4 0.00 0.00 0.00 99 1023.7
20260906100924 15 143 1.6 3.2 0.00 0.00 0.00 99 1023.5
20260906100423 15 109 3.2 6.4 0.00 0.00 0.00 99 1023.7
20260906095918 15 193 1.6 4.8 0.00 0.00 0.00 99 1023.6
20260906095414 15 168 1.6 9.7 0.00 0.00 0.00 99 1023.6
20260906094913 15 208 1.6 6.4 0.00 0.00 0.00 99 1023.6
20260906094408 15 184 4.8 11.3 0.00 0.00 0.00 99 1023.6
20260906093904 15 165 1.6 6.4 0.00 0.00 0.00 99 1023.7
20260906093400 15 103 4.8 9.7 0.00 0.00 0.00 99 1023.6
20260906092854 15 96 6.4 9.7 0.00 0.00 0.00 98 1023.6
20260906092349 16 162 1.6 11.3 0.00 0.00 0.00 97 1023.5
20260906091844 16 302 6.4 11.3 0.00 0.00 0.00 95 1023.6
20260906091341 16 100 3.2 9.7 0.00 0.00 0.00 94 1023.6
20260906090837 16 170 6.4 9.7 0.00 0.00 0.00 95 1023.6
20260906090336 16 178 1.6 4.8 0.00 0.00 0.00 97 1023.6
20260906085830 16 156 3.2 4.8 0.00 0.00 0.00 96 1023.6
20260906085329 16 177 1.6 4.8 0.00 0.00 0.00 96 1023.7
20260906084824 16 141 3.2 9.7 0.00 0.00 0.00 96 1023.6
20260906084324 16 183 4.8 6.4 0.00 0.00 0.00 95 1023.7
20260906083819 16 211 3.2 4.8 0.00 0.00 0.00 95 1023.6
20260906083314 16 137 1.6 3.2 0.00 0.00 0.00 95 1023.6
20260906082808 16 147 3.2 4.8 0.00 0.00 0.00 94 1023.7
20260906082306 16 76 1.6 4.8 0.00 0.00 0.00 95 1023.7
20260906081759 16 200 0.0 6.4 0.00 0.00 0.00 93 1023.5
20260906081256 16 159 3.2 6.4 0.00 0.00 0.00 92 1023.4
20260906080752 16 179 1.6 4.8 0.00 0.00 0.00 92 1023.7
20260906080248 16 134 4.8 6.4 0.00 0.00 0.00 91 1023.3
20260906075747 16 143 4.8 6.4 0.00 0.00 0.00 91 1023.3
20260906075247 16 187 3.2 4.8 0.00 0.00 0.00 89 1023.3
20260906074743 16 156 1.6 6.4 0.00 0.00 0.00 90 1023.5
20260906074242 16 155 3.2 4.8 0.00 0.00 0.00 91 1023.4
20260906073742 16 169 1.6 4.8 0.00 0.00 0.00 90 1023.4
20260906073236 16 174 1.6 4.8 0.00 0.00 0.00 89 1023.6
20260906072732 16 123 3.2 3.2 0.00 0.00 0.00 89 1023.4
20260906072228 16 214 1.6 3.2 0.00 0.00 0.00 88 1023.5
20260906071723 16 169 0.0 3.2 0.00 0.00 0.00 90 1023.6
20260906071224 16 192 3.2 4.8 0.00 0.00 0.00 90 1023.5
20260906070720 16 115 3.2 4.8 0.00 0.00 0.00 90 1023.6
20260906070215 16 164 1.6 6.4 0.00 0.00 0.00 89 1023.6
20260906065715 16 195 0.0 4.8 0.00 0.00 0.00 88 1023.7
20260906065210 17 165 3.2 6.4 0.00 0.00 0.00 86 1023.6
20260906064706 17 127 1.6 4.8 0.00 0.00 0.00 84 1023.8
20260906064201 17 197 1.6 4.8 0.00 0.00 0.00 83 1023.6
20260906063656 17 96 4.8 6.4 0.00 0.00 0.00 82 1023.5
20260906063152 17 44 1.6 3.2 0.00 0.00 0.00 82 1023.5
20260906062648 17 164 1.6 3.2 0.00 0.00 0.00 82 1023.3
20260906062146 17 156 4.8 6.4 0.00 0.00 0.00 79 1023.4
20260906061643 17 166 4.8 6.4 0.00 0.00 0.00 79 1023.3
20260906061142 17 179 4.8 9.7 0.00 0.00 0.00 79 1023.3
20260906060639 17 168 1.6 4.8 0.00 0.00 0.00 79 1023.3
20260906060136 17 157 3.2 6.4 0.00 0.00 0.00 79 1023.2
20260906055631 17 197 1.6 4.8 0.00 0.00 0.00 81 1023.2
20260906055126 17 154 3.2 6.4 0.00 0.00 0.00 82 1023.3
20260906054621 17 182 8.0 11.3 0.00 0.00 0.00 84 1023.1
20260906054116 17 204 1.6 6.4 0.00 0.00 0.00 85 1023.2
20260906053613 17 123 4.8 6.4 0.00 0.00 0.00 86 1023.0
20260906053108 17 92 3.2 6.4 0.00 0.00 0.00 87 1023.0
20260906052604 17 205 3.2 6.4 0.00 0.00 0.00 87 1023.1
20260906052100 17 135 1.6 9.7 0.00 0.00 0.00 86 1023.1
20260906051556 17 165 4.8 6.4 0.00 0.00 0.00 86 1023.0
20260906051051 17 151 4.8 4.8 0.00 0.00 0.00 85 1023.0
20260906050546 17 114 3.2 11.3 0.00 0.00 0.00 85 1023.0
20260906050041 17 139 3.2 9.7 0.00 0.00 0.00 87 1022.9
20260906045539 17 154 3.2 6.4 0.00 0.00 0.00 87 1023.0
20260906045035 17 189 3.2 6.4 0.00 0.00 0.00 87 1022.8
20260906044531 17 106 3.2 6.4 0.00 0.00 0.00 87 1022.8
20260906044026 17 145 3.2 11.3 0.00 0.00 0.00 87 1022.9
20260906043521 17 167 3.2 6.4 0.00 0.00 0.00 89 1023.0
20260906043018 17 126 3.2 12.9 0.00 0.00 0.00 89 1023.0
20260906042516 17 153 3.2 4.8 0.00 0.00 0.00 90 1023.0
20260906042011 17 176 1.6 6.4 0.00 0.00 0.00 90 1022.9
20260906041508 17 148 3.2 4.8 0.00 0.00 0.00 90 1023.1
20260906041007 17 164 3.2 6.4 0.00 0.00 0.00 91 1022.8
20260906040502 17 184 1.6 9.7 0.00 0.00 0.00 92 1023.0
20260906035957 17 190 3.2 6.4 0.00 0.00 0.00 93 1022.9
20260906035453 17 156 3.2 11.3 0.00 0.00 0.00 93 1023.0
20260906034949 17 112 3.2 9.7 0.00 0.00 0.00 94 1022.8
20260906034449 17 182 1.6 11.3 0.00 0.00 0.00 95 1022.9
20260906033944 17 184 1.6 9.7 0.00 0.00 0.00 96 1022.8
20260906033444 17 179 3.2 9.7 0.00 0.00 0.00 97 1022.9
20260906032940 17 102 6.4 9.7 0.00 0.00 0.00 98 1022.8
20260906032437 17 158 4.8 6.4 0.00 0.00 0.00 98 1022.7
20260906031936 17 79 4.8 9.7 0.00 0.00 0.00 98 1022.8
20260906031432 17 173 3.2 4.8 0.00 0.00 0.00 98 1022.7
20260906030927 17 204 6.4 9.7 0.00 0.00 0.00 98 1022.8
20260906030422 17 76 4.8 9.7 0.00 0.00 0.00 97 1022.7
20260906025916 17 104 4.8 9.7 0.00 0.00 0.00 97 1022.7
20260906025410 17 143 6.4 14.5 0.00 0.00 0.00 96 1022.6
20260906024909 17 148 3.2 6.4 0.00 0.00 0.00 96 1022.6
20260906024408 17 164 4.8 14.5 0.00 0.00 0.00 95 1022.8
20260906023904 17 122 4.8 6.4 0.00 0.00 0.00 94 1022.7
20260906023400 17 173 3.2 11.3 0.00 0.00 0.00 93 1022.9
20260906022854 17 104 3.2 9.7 0.00 0.00 0.00 93 1022.7
20260906022349 17 111 6.4 9.7 0.00 0.00 0.00 92 1022.6
20260906021846 17 140 1.6 9.7 0.00 0.00 0.00 90 1022.6
20260906021345 17 149 3.2 6.4 0.00 0.00 0.00 89 1022.7
20260906020840 17 90 1.6 11.3 0.00 0.00 0.00 87 1022.6
20260906020339 17 122 3.2 6.4 0.00 0.00 0.00 86 1022.8
20260906015834 17 182 1.6 6.4 0.00 0.00 0.00 84 1022.7
20260906015333 18 86 3.2 6.4 0.00 0.00 0.00 83 1022.8
20260906014832 18 100 8.0 12.9 0.00 0.00 0.00 82 1022.4
20260906014322 18 195 3.2 4.8 0.00 0.00 0.00 82 1022.6
20260906013818 18 127 4.8 9.7 0.00 0.00 0.00 81 1022.5
20260906013313 18 180 4.8 12.9 0.00 0.00 0.00 81 1022.5
20260906012809 18 100 3.2 4.8 0.00 0.00 0.00 81 1022.6
20260906012309 18 116 3.2 6.4 0.00 0.00 0.00 80 1022.5
20260906011804 18 174 4.8 9.7 0.00 0.00 0.00 80 1022.5
20260906011304 18 109 3.2 6.4 0.00 0.00 0.00 79 1022.5
20260906010800 18 136 1.6 6.4 0.00 0.00 0.00 79 1022.4
20260906010256 18 139 3.2 9.7 0.00 0.00 0.00 80 1022.3
20260906005751 18 119 3.2 6.4 0.00 0.00 0.00 81 1022.4
20260906005249 18 115 3.2 4.8 0.00 0.00 0.00 81 1022.4
20260906004743 18 174 1.6 9.7 0.00 0.00 0.00 80 1022.3
20260906004239 18 188 3.2 6.4 0.00 0.00 0.00 79 1022.6
20260906003738 18 187 0.0 3.2 0.00 0.00 0.00 79 1022.3
20260906003234 19 167 3.2 6.4 0.00 0.00 0.00 78 1022.6
20260906002729 19 160 4.8 4.8 0.00 0.00 0.00 77 1022.5
20260906002228 19 114 1.6 4.8 0.00 0.00 0.00 76 1022.6
20260906001724 20 126 1.6 4.8 0.00 0.00 0.00 76 1022.4
20260906001219 20 155 3.2 4.8 0.00 0.00 0.00 75 1022.4
20260906000714 20 105 3.2 3.2 0.00 0.00 0.00 74 1022.5
20260906000212 20 124 1.6 4.8 0.00 0.00 0.00 73 1022.5
20260905235709 20 147 1.6 4.8 0.00 0.00 0.00 72 1022.6
20260905235204 21 183 3.2 11.3 0.00 0.00 0.00 71 1022.5
20260905234659 21 72 1.6 3.2 0.00 0.00 0.00 71 1022.7
20260905234154 21 165 3.2 11.3 0.00 0.00 0.00 70 1022.7
20260905233649 21 81 3.2 11.3 0.00 0.00 0.00 69 1022.5
20260905233148 21 196 3.2 4.8 0.00 0.00 0.00 69 1022.5
20260905232644 21 155 3.2 4.8 0.00 0.00 0.00 69 1022.6
20260905232139 21 171 6.4 11.3 0.00 0.00 0.00 68 1022.4
20260905231634 22 156 1.6 14.5 0.00 0.00 0.00 68 1022.6
20260905231131 22 165 4.8 6.4 0.00 0.00 0.00 67 1022.6
20260905230627 22 151 1.6 4.8 0.00 0.00 0.00 67 1022.5
20260905230124 22 104 8.0 9.7 0.00 0.00 0.00 66 1022.5
20260905225618 22 117 1.6 9.7 0.00 0.00 0.00 64 1022.6
20260905225113 23 74 4.8 6.4 0.00 0.00 0.00 64 1022.6
20260905224608 23 99 4.8 4.8 0.00 0.00 0.00 64 1022.8
20260905224107 23 66 4.8 12.9 0.00 0.00 0.00 65 1022.6
20260905223604 23 118 6.4 11.3 0.00 0.00 0.00 63 1022.7
20260905223100 23 178 6.4 11.3 0.00 0.00 0.00 62 1022.7
20260905222600 23 157 3.2 6.4 0.00 0.00 0.00 63 1022.9
20260905222055 23 116 6.4 9.7 0.00 0.00 0.00 63 1022.7
20260905221551 23 114 3.2 6.4 0.00 0.00 0.00 61 1022.3
20260905221047 23 167 3.2 9.7 0.00 0.00 0.00 62 1022.3
20260905220543 23 176 3.2 9.7 0.00 0.00 0.00 61 1022.2
20260905220039 24 176 3.2 4.8 0.00 0.00 0.00 61 1022.6
20260905215538 23 185 3.2 4.8 0.00 0.00 0.00 61 1022.4
20260905215034 24 177 1.6 4.8 0.00 0.00 0.00 60 1022.3
20260905214530 24 73 1.6 6.4 0.00 0.00 0.00 59 1022.6
20260905214025 24 124 6.4 11.3 0.00 0.00 0.00 61 1022.6
20260905213520 24 161 1.6 11.3 0.00 0.00 0.00 61 1022.3
20260905213016 25 225 1.6 4.8 0.00 0.00 0.00 60 1022.3
20260905212510 24 110 4.8 6.4 0.00 0.00 0.00 59 1022.2
20260905212010 25 164 4.8 6.4 0.00 0.00 0.00 58 1022.3
20260905211505 24 98 3.2 4.8 0.00 0.00 0.00 59 1022.4
20260905211001 24 83 3.2 3.2 0.00 0.00 0.00 59 1022.4
20260905210456 24 174 3.2 9.7 0.00 0.00 0.00 60 1022.3
20260905205955 24 73 3.2 4.8 0.00 0.00 0.00 60 1022.4
20260905205450 25 93 1.6 3.2 0.00 0.00 0.00 59 1022.6
20260905204949 24 109 4.8 6.4 0.00 0.00 0.00 59 1022.6
20260905204440 24 129 1.6 11.3 0.00 0.00 0.00 58 1022.6
20260905203939 24 175 3.2 4.8 0.00 0.00 0.00 58 1022.7
20260905203434 25 252 3.2 3.2 0.00 0.00 0.00 57 1022.6
20260905202930 25 159 4.8 11.3 0.00 0.00 0.00 59 1022.6
20260905202425 25 121 6.4 6.4 0.00 0.00 0.00 58 1022.8
20260905201920 25 197 1.6 3.2 0.00 0.00 0.00 60 1022.7
20260905201416 25 135 1.6 6.4 0.00 0.00 0.00 58 1022.6
20260905200915 25 154 1.6 4.8 0.00 0.00 0.00 58 1022.7
20260905200411 25 189 3.2 3.2 0.00 0.00 0.00 59 1022.7
20260905195909 25 94 4.8 9.7 0.00 0.00 0.00 59 1022.4
20260905195405 24 165 3.2 6.4 0.00 0.00 0.00 59 1022.3
20260905194900 25 185 6.4 9.7 0.00 0.00 0.00 59 1022.5
20260905194359 25 91 1.6 9.7 0.00 0.00 0.00 60 1022.5
20260905193854 25 212 4.8 4.8 0.00 0.00 0.00 61 1022.4
20260905193349 24 187 1.6 6.4 0.00 0.00 0.00 60 1022.4
20260905192844 24 115 3.2 9.7 0.00 0.00 0.00 61 1022.6
20260905192340 25 191 4.8 6.4 0.00 0.00 0.00 61 1022.7
20260905191839 24 222 6.4 11.3 0.00 0.00 0.00 63 1022.8